sat.trackr.live / text

‹ back to catalog

KUIPER-00232

NORAD 67148 · 2025-301R

PAYLOAD ACTIVE UNKNOWN

§ Identity

Operator
Country
US
Launch date
2025-12-16
Launch site
AFETR
Launch vehicle
Mass (kg)
RCS (m²)

External: N2YO · Heavens-Above · Gunter

§ Orbital elements

Epoch: 2026-05-25T02:27:59.315040Z

Period
97.30 min
Inclination
51.8992°
Eccentricity
0.0001195
Mean motion
14.79888656 rev/d
Perigee alt
628.8 km
Apogee alt
630.5 km
Semi-major
7,007.8 km
B*
4.0510e-4
RAAN
87.7530°
Arg perigee
85.9806°
Mean anomaly
274.1292°
Rev number
2,504

§ Raw data

KUIPER-002321 67148U 25301R   26145.10276985  .00002865  00000+0  40510-3 0  99962 67148  51.8992  87.7530 0001195  85.9806 274.1292 14.79888656 25044

JSON: /api/v1/satellites/67148 · /tle

For live sub-satellite position, see the globe view (requires WebGL).

§ Visibility from observer

Set your observer location to see the next 7 days of passes ≥ 10°. The values pass through the URL so the page stays shareable.

No JS? Fill the form by hand. The geolocation button needs JavaScript.